www.pogodaiklimat.ru

Погода и климат >> Архив погоды >> Испания >> Тарифа


ПОГОДА в Тарифе

  • Прогноз погоды в Тарифе
  • Монитор погоды в Тарифе

АРХИВ ПОГОДЫ в Тарифе

Время (UTC), дата Ветер
(напр.,м/с)
 
Видим.   Явления Облачность Т
(С)
Тd
(С)
f
(%)
Тe
(С)
Тes
(С)
Комфортность P
(гПа)
Po
(гПа)
Тmin
(С)
Tmax
(С)
R
(мм)
R24
(мм)
S
(см)
16 13.09 В 5-7
{7}
н/о н/о +22.4 +17.8 75 +27 +27 душно 1015.4 1011.7
17 13.09 В 5-7
{7}
н/о н/о +22.2 +18.0 77 +27 +27 душно 1015.6 1011.9
18 13.09 В 5-7
{8}
н/о н/о +22.0 +18.0 78 +27 +27 душно 1015.8 1012.1 +23.6
19 13.09 В 4-7
{7}
н/о н/о +21.8 +18.2 80 +27 +27 душно 1015.7 1012.0
20 13.09 В 5-7
{7}
н/о н/о +22.1 +18.9 82 +27 +27 душно 1016.5 1012.8
22 13.09 В 4-7
{7}
н/о н/о +22.2 +19.0 82 +28 +28 душно 1016.8 1013.1
23 13.09 В 4-7
{7}
н/о н/о +22.3 +19.1 82 +28 +28 душно 1016.7 1013.0
00 14.09 В 4-5
{7}
н/о н/о +21.9 +19.1 84 +27 +27 душно 1016.4 1012.7
01 14.09 СВ 3-5
{6}
н/о н/о +21.5 +19.3 87 +26 +26 душно 1015.6 1011.9
02 14.09 В 4-6
{6}
н/о н/о +21.6 +18.8 84 +26 +26 душно 1015.2 1011.5
04 14.09 В 4-6
{7}
н/о н/о +21.1 +19.4 90 +26 +26 душно 1014.7 1011.0
05 14.09 В 4-6
{6}
н/о н/о +21.0 +19.5 91 +26 +26 душно 1015.1 1011.4
06 14.09 В 4 н/о н/о +21.0 +19.3 90 +26 +26 душно 1015.4 1011.7 +20.9 +22.4
07 14.09 В 4-6
{6}
н/о н/о +21.5 +19.3 87 +26 +26 душно 1015.8 1012.1
08 14.09 В 4-6
{6}
н/о н/о +21.7 +18.7 83 +27 +27 душно 1016.1 1012.4
10 14.09 В 5-7
{8}
н/о н/о +23.0 +18.8 77 +29 +29 очень
душно
1016.3 1012.6
11 14.09 В 5-8
{8}
н/о н/о +23.1 +18.8 77 +29 +29 очень
душно
1016.3 1012.6
12 14.09 В 4-7
{8}
н/о н/о +23.0 +18.8 77 +29 +29 очень
душно
1016.1 1012.4
13 14.09 В 5-7
{8}
н/о н/о +23.3 +19.1 77 +30 +30 очень
душно
1015.5 1011.8
14 14.09 В 5-7
{7}
н/о н/о +24.1 +19.2 74 +29 +29 душно 1014.9 1011.2
16 14.09 В 5-7
{8}
н/о н/о +23.3 +19.3 78 +30 +30 очень
душно
1014.5 1010.8
17 14.09 В 5-7
{7}
н/о н/о +22.7 +19.5 82 +29 +29 очень
душно
1014.6 1010.9
18 14.09 В 4-7
{7}
н/о н/о +21.9 +19.4 86 +27 +27 душно 1014.8 1011.1 +24.6
19 14.09 В 4-7
{7}
н/о н/о +21.8 +19.9 89 +27 +27 душно 1015.7 1012.0
20 14.09 В 4-6
{6}
н/о н/о +21.5 +20.0 91 +27 +27 душно 1016.0 1012.3
22 14.09 В 4-6
{6}
н/о н/о +21.6 +20.1 91 +27 +27 душно 1016.4 1012.7
23 14.09 В 4-6
{6}
н/о н/о +21.7 +20.3 92 +27 +27 душно 1016.6 1012.9
00 15.09 В 3-5
{6}
н/о н/о +21.7 +20.5 93 +27 +27 душно 1016.3 1012.6
01 15.09 В 3-5
{5}
н/о н/о +21.5 +20.5 94 +27 +27 душно 1016.2 1012.5
02 15.09 В 3-4
{5}
н/о н/о +21.5 +20.5 94 +27 +27 душно 1015.9 1012.2
04 15.09 В 2-4
{4}
н/о н/о +21.3 +20.7 96 +27 +27 душно 1015.8 1012.1
05 15.09 В 2-3
{4}
н/о н/о +21.3 +20.7 96 +27 +27 душно 1016.1 1012.4
06 15.09 З 1 н/о н/о +19.1 +17.8 92 +22 +22 комфорт 1016.5 1012.8 +19.1 +21.8
07 15.09 З 2-3
{3}
н/о н/о +18.9 +17.9 94 +21 +21 комфорт 1016.7 1013.0
08 15.09 З 2-3
{3}
н/о н/о +19.0 +17.9 93 +21 +21 комфорт 1017.2 1013.5
10 15.09 З 2-3
{3}
н/о н/о +20.6 +18.0 85 +25 +25 комфорт 1018.0 1014.3
11 15.09 З 3-4
{4}
н/о н/о +21.1 +18.3 84 +25 +25 комфорт 1018.1 1014.4
12 15.09 З 3-4
{4}
н/о н/о +21.3 +18.5 84 +26 +26 душно 1017.9 1014.2
13 15.09 З 3-4
{4}
н/о н/о +21.4 +17.6 79 +26 +26 душно 1017.2 1013.5
14 15.09 З 2-3
{3}
н/о н/о +22.0 +18.0 78 +27 +27 душно 1017.0 1013.3
16 15.09 З 2-3
{3}
н/о н/о +21.8 +17.8 78 +26 +26 душно 1016.3 1012.6
17 15.09 З 2-3
{3}
н/о н/о +21.7 +17.5 77 +26 +26 душно 1016.3 1012.6
18 15.09 З 2-3
{3}
н/о н/о +20.9 +17.7 82 +26 +26 душно 1016.5 1012.8 +22.4
19 15.09 З 2-2
{3}
н/о н/о +19.9 +17.7 87 +23 +23 комфорт 1016.6 1012.9
20 15.09 СЗ 1-2
{2}
н/о н/о +19.6 +17.9 90 +24 +24 комфорт 1017.5 1013.8
22 15.09 СЗ 1-1
{2}
н/о н/о +19.0 +17.9 93 +22 +22 комфорт 1018.0 1014.3
23 15.09 СЗ 1-2
{2}
н/о н/о +18.5 +17.4 93 +20 +20 1018.3 1014.5
00 16.09 штиль 0-1
{2}
н/о н/о +18.4 +17.2 93 +19 +19 1018.0 1014.2
01 16.09 СЗ 1-1
{1}
н/о н/о +17.6 +16.6 94 +19 +19 1017.6 1013.8
02 16.09 штиль 0-1
{1}
н/о н/о +17.8 +17.1 96 +18 +18 1017.3 1013.5
04 16.09 С 1-1
{1}
н/о н/о +16.2 +15.9 98 +18 +18 1017.0 1013.2
05 16.09 В 1-1
{1}
н/о н/о +15.0 +14.8 99 +16 +16 1017.1 1013.3
06 16.09 В 1 н/о н/о +16.3 +16.0 98 +18 +18 1017.3 1013.5 +15.0 +20.7
07 16.09 В 1-2
{2}
н/о н/о +17.6 +17.5 99 +19 +19 1017.6 1013.8
08 16.09 В 2-3
{3}
н/о н/о +19.4 +18.1 92 +22 +22 комфорт 1017.9 1014.2
10 16.09 В 3-4
{4}
н/о н/о +20.9 +18.7 87 +26 +26 душно 1018.2 1014.5
11 16.09 В 3-5
{5}
н/о н/о +22.0 +18.6 81 +27 +27 душно 1018.1 1014.4
12 16.09 В 3-5
{5}
н/о н/о +22.2 +18.6 80 +27 +27 душно 1017.3 1013.6
13 16.09 В 4-6
{6}
н/о н/о +22.6 +18.8 79 +28 +28 душно 1016.5 1012.8
14 16.09 В 4-5
{6}
н/о н/о +23.3 +18.2 73 +29 +29 душно 1015.9 1012.2
16 16.09 В 3-5
{5}
н/о н/о +23.3 +18.2 73 +29 +29 душно 1015.8 1012.1
17 16.09 В 3-5
{5}
н/о н/о +23.1 +18.0 73 +29 +29 очень
душно
1015.2 1011.5
18 16.09 СВ 2-4
{5}
н/о н/о +22.6 +17.5 73 +28 +28 душно 1015.5 1011.8 +24.3
19 16.09 СВ 2-4
{4}
н/о н/о +21.7 +17.9 79 +26 +26 душно 1015.7 1012.0
20 16.09 В 3-5
{5}
н/о н/о +21.3 +18.3 83 +26 +26 душно 1015.7 1012.0
22 16.09 В 4-5
{5}
н/о н/о +20.5 +19.5 94 +25 +25 комфорт 1016.1 1012.4
23 16.09 В 3-5
{5}
н/о н/о +20.4 +19.4 94 +25 +25 комфорт 1016.3 1012.6
00 17.09 В 3-5
{6}
н/о н/о +20.5 +19.5 94 +25 +25 комфорт 1015.6 1011.9
01 17.09 В 4-6
{6}
н/о н/о +20.1 +19.3 95 +24 +24 комфорт 1014.8 1011.1
02 17.09 В 5-7
{7}
н/о н/о +20.6 +19.8 95 +25 +25 комфорт 1013.5 1009.8
04 17.09 В 4-6
{7}
н/о н/о +20.2 +19.3 95 +24 +24 комфорт 1013.5 1009.8
05 17.09 В 4-6
{7}
н/о н/о +20.3 +19.5 95 +24 +24 комфорт 1013.7 1010.0
06 17.09 В 4 н/о н/о +20.6 +19.8 95 +25 +25 комфорт 1013.7 1010.0 +19.9 +22.5
07 17.09 В 4-6
{6}
н/о н/о +21.1 +19.4 90 +26 +26 душно 1014.0 1010.3
08 17.09 В 4-5
{6}
н/о н/о +22.0 +19.9 88 +28 +28 душно 1014.2 1010.5
10 17.09 В 4-6
{7}
н/о н/о +23.8 +19.7 78 +29 +29 душно 1014.9 1011.2
11 17.09 В 4-6
{6}
н/о н/о +24.5 +19.8 75 +30 +30 очень
душно
1014.2 1010.5
12 17.09 В 5-7
{7}
н/о н/о +24.7 +19.3 72 +30 +30 очень
душно
1014.1 1010.4
13 17.09 В 4-7
{7}
н/о н/о +25.9 +19.6 68 +31 +31 очень
душно
1013.7 1010.0
14 17.09 В 4-6
{7}
н/о н/о +25.5 +19.4 69 +31 +31 очень
душно
1013.7 1010.0
16 17.09 В 4-6
{6}
н/о н/о +24.6 +20.3 77 +30 +30 очень
душно
1013.2 1009.5
17 17.09 В 4-5
{6}
н/о н/о +24.1 +20.5 80 +30 +30 очень
душно
1012.9 1009.2
18 17.09 В 3-5
{5}
н/о н/о +22.9 +20.8 88 +30 +30 очень
душно
1012.8 1009.1 +26.2
19 17.09 В 3-5
{5}
н/о н/о +22.1 +20.7 92 +28 +28 душно 1012.8 1009.1
20 17.09 В 3-4
{5}
н/о н/о +21.7 +20.5 93 +27 +27 душно 1013.2 1009.5
22 17.09 СВ 1-2
{2}
н/о н/о +21.0 +19.8 93 +27 +27 душно 1014.5 1010.8
23 17.09 С 1-2
{3}
н/о н/о +20.4 +19.1 92 +25 +25 комфорт 1014.6 1010.9
00 18.09 С 1-1
{2}
н/о н/о +20.7 +19.2 91 +26 +26 душно 1014.8 1011.1
01 18.09 С 1-1
{2}
н/о н/о +20.3 +19.0 92 +25 +25 комфорт 1014.5 1010.8
02 18.09 СВ 1-1
{2}
н/о н/о +20.7 +19.0 90 +26 +26 душно 1014.3 1010.6
04 18.09 Ю 1-1
{2}
н/о н/о +20.4 +19.4 94 +26 +26 душно 1013.8 1010.1
05 18.09 ЮЗ 1-1
{1}
н/о н/о +20.3 +19.1 93 +26 +26 душно 1013.9 1010.2
06 18.09 З 1 н/о н/о +20.1 +18.8 92 +25 +25 комфорт 1014.4 1010.7 +20.1 +22.6
07 18.09 З 1-1
{2}
н/о н/о +20.3 +18.6 90 +25 +25 комфорт 1015.2 1011.5
08 18.09 З 1-1
{1}
н/о н/о +21.3 +18.7 85 +26 +26 душно 1015.5 1011.8
12 18.09 З 3-4
{4}
н/о н/о +22.2 +18.8 81 +28 +28 душно 1015.8 1012.1
13 18.09 З 3-5
{5}
н/о н/о +21.9 +18.5 81 +27 +27 душно 1015.7 1012.0
14 18.09 З 3-4
{5}
н/о н/о +23.1 +18.0 73 +29 +29 очень
душно
1015.2 1011.5
16 18.09 З 3-4
{4}
н/о н/о +22.1 +18.3 79 +27 +27 душно 1014.5 1010.8
17 18.09 З 2-4
{4}
н/о н/о +21.5 +17.9 80 +26 +26 душно 1014.8 1011.1
18 18.09 З 3-4
{4}
н/о н/о +20.7 +18.2 86 +25 +25 комфорт 1015.0 1011.3 +23.1
19 18.09 З 3-4
{4}
н/о н/о +20.0 +17.9 88 +23 +23 комфорт 1015.2 1011.5
20 18.09 З 3-4
{4}
н/о н/о +19.8 +17.5 87 +23 +23 комфорт 1015.7 1012.0
22 18.09 СЗ 2-2
{2}
н/о н/о +18.8 +16.8 88 +21 +21 комфорт 1016.1 1012.4
23 18.09 СЗ 2-2
{2}
н/о н/о +18.5 +16.3 87 +20 +20 1016.3 1012.5
00 19.09 СЗ 2-3
{3}
н/о н/о +18.1 +15.9 87 +19 +19 1016.0 1012.2
01 19.09 СЗ 1-2
{3}
н/о н/о +17.9 +15.7 87 +19 +19 1015.8 1012.0
02 19.09 СЗ 1-2
{2}
н/о н/о +17.7 +15.9 89 +19 +19 1015.3 1011.5
04 19.09 СЗ 1-2
{2}
н/о н/о +17.5 +16.2 92 +19 +19 1015.1 1011.3
05 19.09 СЗ 1-2
{2}
н/о н/о +18.2 +16.4 89 +20 +20 1015.3 1011.5
06 19.09 СЗ 1 н/о н/о +18.0 +16.5 91 +19 +19 1015.5 1011.7 +17.4 +20.4
07 19.09 СЗ 1-1
{2}
н/о н/о +18.2 +16.7 91 +20 +20 1015.7 1011.9
08 19.09 ЮЗ 1-2
{2}
н/о н/о +19.7 +17.3 86 +23 +23 комфорт 1015.9 1012.2
10 19.09 З 2-2
{3}
н/о н/о +21.5 +17.9 80 +26 +26 душно 1016.3 1012.6
11 19.09 З 2-3
{3}
н/о н/о +21.9 +18.1 79 +27 +27 душно 1016.1 1012.4
12 19.09 З 2-3
{4}
н/о н/о +22.1 +18.3 79 +27 +27 душно 1015.4 1011.7
13 19.09 З 2-3
{4}
н/о н/о +22.2 +18.6 80 +27 +27 душно 1015.1 1011.4
14 19.09 З 2-4
{4}
н/о н/о +22.5 +19.1 81 +28 +28 душно 1014.2 1010.5
16 19.09 З 2-3
{3}
н/о н/о +21.7 +18.5 82 +26 +26 душно 1013.9 1010.2
17 19.09 СЗ 1-2
{3}
н/о н/о +21.5 +18.3 82 +26 +26 душно 1013.9 1010.2
18 19.09 СЗ 1-2
{3}
н/о н/о +20.9 +17.7 82 +26 +26 душно 1013.7 1010.0 +22.6
19 19.09 Ю 1-1
{2}
н/о н/о +19.9 +18.2 90 +24 +24 комфорт 1013.9 1010.2
20 19.09 штиль 0-1
{1}
н/о н/о +19.1 +17.8 92 +21 +21 комфорт 1014.0 1010.3
22 19.09 В 2-3
{3}
н/о н/о +20.6 +18.0 85 +25 +25 комфорт 1014.8 1011.1
23 19.09 В 2-3
{3}
н/о н/о +20.7 +17.7 83 +25 +25 комфорт 1014.6 1010.9
00 20.09 В 2-2
{3}
н/о н/о +19.7 +18.0 90 +23 +23 комфорт 1014.4 1010.7
01 20.09 В 2-3
{3}
н/о н/о +20.5 +16.3 77 +24 +24 комфорт 1014.3 1010.6
02 20.09 В 3-4
{4}
н/о н/о +20.7 +17.9 84 +25 +25 комфорт 1013.6 1009.9
04 20.09 В 3-4
{5}
н/о н/о +20.3 +19.3 94 +25 +25 комфорт 1013.1 1009.4
05 20.09 В 2-3
{4}
н/о н/о +19.5 +18.8 96 +23 +23 комфорт 1013.3 1009.6
06 20.09 В 2 н/о н/о +19.3 +18.3 94 +22 +22 комфорт 1013.0 1009.3 +18.9 +20.9
08 20.09 В 2-3
{3}
н/о н/о +21.1 +19.6 91 +26 +26 душно 1014.1 1010.4
10 20.09 В 3-4
{4}
н/о н/о +22.5 +19.3 82 +28 +28 душно 1014.4 1010.7
11 20.09 В 3-4
{4}
н/о н/о +23.9 +19.8 78 +29 +29 душно 1014.1 1010.4
12 20.09 В 2-3
{4}
н/о н/о +23.6 +19.3 77 +29 +29 душно 1014.0 1010.3
13 20.09 В 2-4
{4}
н/о н/о +24.1 +19.8 77 +29 +29 душно 1013.5 1009.8
14 20.09 З 1-3
{4}
н/о н/о +23.4 +18.9 76 +30 +30 очень
душно
1013.2 1009.5

 

Местоположение метеостанции Тарифа (Испания): широта 36.02 долгота -5.60 высота над уровнем моря 25 м.

В архиве по умолчанию представлена погода в Тарифе за последнюю неделю. Архивные данные за месяц целиком и за предыдущие месяцы, начиная с января 2011 года, Вы можете получить, выбрав интересующий диапазон дат из раскрывающегося списка и нажав кнопку "Ввод!".


*Определитесь, кто Вы:
робот инопланетянин человек

Внимание! Время в таблицах - всемирное. Для получения местного времени необходимо прибавить поправку, которая равна 1 ч.

Смотрите также архив погоды в соседних городах и на ближайших метеорологических станциях:

Погода Гибралтаре (Гибралтар) (27 км)
Погода в Сеуте (Испания) (27 км)
Погода в Танжер порту (Марокко) (32 км)
Погода в Вехер-де-ла-Фронтера (Испания) (41 км)
Погода в Танжере (Марокко) (42 км)
Погода в Тетуане (Марокко) (55 км)
Погода в Эстепоне (Испания) (60 км)
Погода в Сан-Фернандо (Испания) (74 км)
Погода в Кадисской бухте (Испания) (80 км)
Погода в Грасалеме (Испания) (85 км)

Пояснения к столбцам:

Ветер - указаны скорость ветра в м/с - средняя за 10 мин, порывы в срок и между сроками (в фигурных скобках) и направление, откуда дует ветер: С - северный, СВ - северо-восточный, В - восточный, ЮВ - юго-восточный, Ю - южный, ЮЗ - юго-западный, З - западный, СЗ - северо-западный.
Видимость - горизонтальная дальность видимости в метрах или километрах. При видимости от 1 до 10 км при отсутствии осадков обычно наблюдается дымка, при ухудшении видимости до 1 км и менее - туман. В сухую погоду видимость может ухудшаться дымом, пылью или мглою.
Явления - указаны атмосферные явления, наблюдавшиеся в срок или в последний час перед сроком; фигурными скобками обозначены явления, наблюдавшиеся между сроками (за 1-3 часа до срока); квадратными скобками обозначены град или гололедные отложения с указанием их диаметра в мм.
Облачность - указаны через наклонную черту общая и нижняя облачность в баллах и высота нижней границы облаков в метрах; квадратными скобками обозначены формы облаков: Ci - перистые, Cs - перисто-слоистые, Cc - перисто-кучевые, Ac - высококучевые, As - высокослоистые, Sc - слоисто-кучевые, Ns - слоисто-дождевые, Cu - кучевые, Cb - кучево-дождевые. Подробнее классификацию облаков см. в Атласе облаков (PDF).
T - Температура воздуха - температура, измеренная на высоте 2 м над землей.
Td - Температура точки росы - температура, при понижении до которой содержащийся в воздухе водяной пар достигнет насыщения.
f - Относительная влажность воздуха - влажноcть воздуха, измеренная на высоте 2 м над землей.
Te - Эффективная температура - температура, которую ощущает одетый по сезону человек в тени. Характеристика душности погоды. При расчете учитывается влияние влажности воздуха и скорости ветра на теплоощущения человека.
Tes - Эффективная температура на солнце - температура, которую ощущает человек, с поправкой на солнечный нагрев. Характеристика знойности погоды. Зависит от высоты солнца над горизонтом, облачности и скорости ветра. Ночью, в пасмурную погоду, а также при ветре 12 м/с и более поправка равна нулю.
P - Атмосферное давление - приведенное к уровню моря атмосферное давление.
Po - Атмосферное давление - измеренное на уровне метеостанции атмосферное давление.
Tmin - Минимальная температура - минимум температуры воздуха на высоте 2 м над землей.
Tmax - Максимальная температура - максимум температуры воздуха на высоте 2 м над землей.
R - Количество осадков - Количество выпавших осадков за период времени, мм. При наведении курсора мыши на число - период времени, за который выпало указанное количество осадков.
R24 - Количество осадков - Количество выпавших осадков за 24 часа, мм.
S - Снежный покров - Высота снежного покрова, см. При наведении курсора мыши на число - состояние снежного покрова и степень покрытия местности в баллах.